Other Public Products
Issued by NWS Charleston, SC

Current Version | Previous Version | Text Only | Print | Product List | Glossary Off
Versions: 1 2 3 4 5 6 7 8 9 10 11 12 13 14 15 16 17 18 19 20 21 22 23 24 25 26 27 28 29 30 31 32 33 34 35 36 37 38 39 40 41 42 43 44 45 46 47 48 49 50

000
FPUS82 KCHS 251912
OPUCHS

TEST...KCHS/KSAV Gateway Observations...TEST
National Weather Service Charleston SC
300 PM EDT SUN JUN 25 2017

NOTE: "fair" indicates few or no clouds below 12,000 feet with no
significant weather and/or obstructions to visibility.

SCZ050-WAZ558-NCZ071-TXZ119-213-PAZ071-DCZ001-FLZ074-172-MI076-
NYZ176-178-MAZ016-IL014-TNZ027-NJZ106-GAZ044-MD014-252000-

...Gateway Observations for Charleston International...

CITY           SKY/WX    TMP DP  RH WIND       PRES   REMARKS
Chas Airport   PTSUNNY   86  74  67 SW8       30.02F THUNDER HX  94
Seattle        PTSUNNY   85  55  35 W8        29.91F
Charlotte      CLOUDY    83  64  52 N10G17    30.11F
Dallas DFW     MOSUNNY   87  64  46 E10       30.19F
Dallas Love    MOSUNNY   86  64  47 NE8       30.20F
Philladelphia  PTSUNNY   85  53  33 W12       29.95F
Wash National  PTSUNNY   87  57  35 NW10      29.99F
Baltimore      PTSUNNY   84  56  38 SW10      29.98F
Miami          PTSUNNY   90  74  59 SE14G20   30.10F HX  99
Detroit        PTSUNNY   70  47  43 W16G25    30.03F
Newark         PTSUNNY   83  52  34 SW13      29.92F
Laguardia      PTSUNNY   82  57  42 S16       29.92F
J F K          PTSUNNY   80  58  46 S17       29.95F
Boston Logan   MOSUNNY   85  51  31 W8        29.88F
Ft. Lauderdale MOSUNNY   88  72  58 SE14      30.10F HX  94
Chicago O`Hare PTSUNNY   70  45  40 W18G24    30.08F
Chicago Midway PTSUNNY   70  46  42 W15       30.10S
Houston Bush   PTSUNNY   80  71  74 E7        30.13F
Houston Hobby  CLOUDY    79  74  84 N9        30.11F THUNDER
Nashville      MOSUNNY   84  47  27 N10       30.22F
Atlanta        CLOUDY    78  64  61 NW14      30.14F

$$

GAZ044-118-TXZ119-213-NCZ071-DCZ001-MDZ014-506-PAZ021-071-NJZ106-
NYZ176-178-MAZ106-OHZ011-021-055-MIZ076-KYZ091-ILZ014-INZ047-
MNZ060-ONZ431-252000-

...Gateway Observations for Savannah International...

CITY           SKY/WX    TMP DP  RH WIND       PRES   REMARKS
Savannah Arpt  TSTM      79  75  87 NW15      30.04S
Atlanta        CLOUDY    78  64  61 NW14      30.14F
Charlotte      CLOUDY    83  64  52 N10G17    30.11F
Dallas DFW     MOSUNNY   87  64  46 E10       30.19F
Houston Bush   PTSUNNY   80  71  74 E7        30.13F
Wash National  PTSUNNY   87  57  35 NW10      29.99F
Wash Dulles    PTSUNNY   82  51  34 W8        30.01F
Baltimore      PTSUNNY   84  56  38 SW10      29.98F
Philadelphia   PTSUNNY   85  53  33 W12       29.95F
Newark         PTSUNNY   83  52  34 SW13      29.92F
Laguardia      PTSUNNY   82  57  42 S16       29.92F
J F K          PTSUNNY   80  58  46 S17       29.95F
Boston         MOSUNNY   85  51  31 W8        29.88F
Pittsburg      MOSUNNY   75  46  35 W15G24    30.04F
Akron          MOSUNNY   76  45  33 W18G33    30.04S
Cleveland      MOSUNNY   75  47  36 W18G28    30.05S
Cincinnati     MOSUNNY   75  49  39 W17G26    30.13F
Columbus       MOSUNNY   76  49  37 W23G35    30.08F
Detroit        PTSUNNY   70  47  43 W16G25    30.03F
Chicago O`Hare PTSUNNY   70  45  40 W18G24    30.08F
Minneapolis    PTSUNNY   67  46  47 W18G28    30.14F
Indianapolis   MOSUNNY   75  48  38 W18       30.14F
Toronto Canada PTSUNNY   70  50  49 W17G26    29.91F

$$




USA.gov is the U.S. government's official web portal to all federal, state and local government web resources and services.